STARLINK-3328 (50832 NORAD) Tracking and Keplerian Element Data

This shows tracking and keplerian element data for the satellite.

Feedback or suggestion? Click here.




ElementValue
Catalog50832
NameSTARLINK-3328
Epoch Orbit380
Epoch Day22.91667824
Epoch Year2022
RAAN119.7572
Inclination53.2175
Eccentricity0.0001116
Argument of Perigee59.0013
Mean Anonmoly257.6442
Mean Motion15.75307782
Decay Rate-0.00821244
L11 50832U 22001AF 22022.91667824 -.00821244 00000+0 -58775-2 0 9990
L22 50832 53.2175 119.7572 0001116 59.0013 257.6442 15.75307782 3808

Live tracking and technical data element details for STARLINK-3328 (NORAD 50832). STARLINK-3328 can be tracked NOW for your location showing map with azimuth and elevation plus other details from your city location.

Track the satellite on the map from your city or location and see movement details for azimuth, elevation, latitude, longitude, range, height, and movement on the map or in text.







IsCatalogInMostPopularTable: catalog: 50832, numindb: 4
Update: records affected: 1



GetName: 50832 STARLINK-3328

Hit Count: updated at: Mon, 24 Jan 2022 00:58:17 GMT